Weather in Sredny Kadam

Russia / Mari El Republic     56°55′42″N   48°23′46″E
temp.,
°C
wind,
m/s
gust,
m/s
humid.,
%
clouds,
%
prec.,
mm/h
press.,
hPa
HPBL,
m
27 february, sat
sat2700:00−14se71494100 5.3 1001647
03:00−14ese71195100 7.0 1000523
06:00−15e61194100 0.8 999490
09:00−15ene71094100 1.3 1000514
12:00−14ne6990100 0.2 1002601
15:00−13nne6990100 0.3 1004670
18:00−14nne51192100 0.1 1006408
21:00−16n5119592 0.1 1007270
28 february, sun
sun2800:00−18n599682 0.0 1007172
03:00−20n599848 0.0 1009156
06:00−21n499864 0.0 1009140
09:00−19n479540 0.0 1010235
12:00−16n479357 0.0 1011315
15:00−14n589270 0.0 1012444
18:00−18n479795 0.0 1014112
21:00−20nne349875 0.0 101735
1 march, mon
mon100:00−21n34970 0.0 101828
03:00−22n33980 0.0 102022
06:00−23n23990 0.0 102120
09:00−19nw11950 0.0 102269
12:00−15w228736 0.0 1021262
15:00−12sw359146 0.0 1020342
18:00−12sw599699 0.0 1017236
21:00−12sw699699 0.1 1015265
2 march, tue
tue200:00−11ssw71195100 0.1 1010309
03:00−8ssw71495100 1.0 1006468
06:00−7ssw71395100 1.3 1001474
09:00−3ssw71296100 2.3 999460
12:000sw4710099 0.7 997443
15:000w47100100 1.3 997448
18:000nw4998100 1.4 997475
21:00−3nnw51192100 1.9 999368
3 march, wed
wed300:00−7nw499597 0.0 999149
03:00−8nw449594 0.0 100074
06:00−8nnw3698100 0.0 100198
09:00−5nnw489499 0.1 1002331
12:00−3nnw699299 0.1 1004754
15:00−5nnw71183100 0.3 1006840
18:00−8nw410900 0.0 1007173
21:00−7nw6129341 0.1 1009571